Buena Vista, CO

5:48 PM MDT on May 26, 2017 (GMT -0600)
Buena Vista

Weather History for KAEJ - May, 2013

Change the Weather History Date:

Thursday, May 30, 2013

  Actual Average (KLXV) Record (KLXV)
Temperature  
Mean Temperature 51 °F -  
Max Temperature 63 °F 59 °F 75 °F (2000)
Min Temperature 39 °F 33 °F 21 °F (2004)
Degree Days  
Heating Degree Days 14    
Growing Degree Days 1 (Base 50)    
Moisture  
Dew Point 16 °F    
Average Humidity 27    
Maximum Humidity 58    
Minimum Humidity 12    
Precipitation  
Precipitation 0.00 in - - ()
Sea Level Pressure  
Sea Level Pressure 29.92 in    
Wind  
Wind Speed 12 mph (West)    
Max Wind Speed 34 mph    
Max Gust Speed 51 mph    
Visibility 10 miles    
Events      
Averages and records for this station are not official NWS values.
T = Trace of Precipitation, MM = Missing Value Source: NWS Daily Summary

Daily Weather History Graph

Daily Weather History Graph

Search for Another Location

Airport or City:

Trip Planner

Search our weather history database for the weather conditions in past years. The results will help you decide how hot, cold, wet, or windy it might be!

Date:

Astronomy

May. 30, 2013 Rise Set
Actual Time 5:41 AM MDT 8:22 PM MDT
Civil Twilight 5:10 AM MDT 8:53 PM MDT
Nautical Twilight 4:31 AM MDT 9:32 PM MDT
Astronomical Twilight 3:47 AM MDT 10:16 PM MDT
Moon 12:27 AM MDT (5/30) 11:51 AM MDT (5/30)
Length of Visible Light 15h 43m
Length of Day
14h 40m
Waning Gibbous, 61% of the Moon is Illuminated
May 30
Waning Gibbous
May 31
Last Quarter
Jun 8
New
Jun 16
First Quarter
Jun 23
Full

Hourly Weather History & Observations

Time (MDT) Temp. Windchill Dew Point Humidity Pressure Visibility Wind Dir Wind Speed Gust Speed Precip Events Conditions
1:35 AM 42.3 °F 39.4 °F 26.6 °F 54% 29.89 in 10.0 mi NW 4.6 mph - N/A   Mostly Cloudy
1:55 AM 42.1 °F - 27.5 °F 56% 29.88 in 10.0 mi Calm Calm - N/A   Mostly Cloudy
2:15 AM 41.5 °F 37.8 °F 27.5 °F 57% 29.88 in 10.0 mi NW 5.8 mph - N/A   Scattered Clouds
2:35 AM 41.9 °F 39.0 °F 27.7 °F 57% 29.88 in 10.0 mi WNW 4.6 mph - N/A   Mostly Cloudy
2:55 AM 41.9 °F 40.0 °F 26.4 °F 54% 29.87 in 10.0 mi NW 3.5 mph - N/A   Mostly Cloudy
3:15 AM 42.6 °F 37.8 °F 24.8 °F 49% 29.87 in 10.0 mi WNW 8.1 mph - N/A   Scattered Clouds
3:35 AM 44.2 °F 38.4 °F 24.3 °F 45% 29.86 in 10.0 mi NW 11.5 mph 20.7 mph N/A   Mostly Cloudy
3:55 AM 43.7 °F 40.3 °F 23.9 °F 46% 29.86 in 10.0 mi NW 5.8 mph - N/A   Mostly Cloudy
4:15 AM 43.5 °F 37.1 °F 23.7 °F 46% 29.87 in 10.0 mi West 12.7 mph 16.1 mph N/A   Scattered Clouds
4:35 AM 43.0 °F 35.7 °F 24.3 °F 48% 29.87 in 10.0 mi WNW 15.0 mph 21.9 mph N/A   Scattered Clouds
4:55 AM 41.4 °F 34.7 °F 25.2 °F 53% 29.87 in 10.0 mi WNW 11.5 mph 16.1 mph N/A   Scattered Clouds
5:15 AM 39.4 °F 37.2 °F 25.9 °F 58% 29.88 in 10.0 mi NW 3.5 mph - N/A   Scattered Clouds
5:35 AM 39.6 °F - 26.1 °F 58% 29.88 in 10.0 mi Calm Calm - N/A   Mostly Cloudy
5:55 AM 40.3 °F - 25.7 °F 56% 29.89 in 10.0 mi Calm Calm - N/A   Scattered Clouds
6:15 AM 42.8 °F 40.1 °F 24.6 °F 49% 29.89 in 10.0 mi WNW 4.6 mph - N/A   Scattered Clouds
6:35 AM 45.0 °F - 23.5 °F 43% 29.90 in 10.0 mi Calm Calm - N/A   Mostly Cloudy
6:55 AM 46.4 °F 41.1 °F 21.2 °F 37% 29.90 in 10.0 mi West 11.5 mph 16.1 mph N/A   Scattered Clouds
7:15 AM 47.8 °F - 19.4 °F 32% 29.91 in 10.0 mi NW 4.6 mph - N/A   Scattered Clouds
7:35 AM 48.6 °F - 19.9 °F 32% 29.91 in 10.0 mi WNW 12.7 mph 19.6 mph N/A   Scattered Clouds
7:55 AM 49.6 °F - 18.1 °F 29% 29.91 in 10.0 mi WNW 17.3 mph 24.2 mph N/A   Scattered Clouds
8:15 AM 50.2 °F - 18.0 °F 28% 29.92 in 10.0 mi WNW 16.1 mph 31.1 mph N/A   Scattered Clouds
8:35 AM 51.6 °F - 16.5 °F 25% 29.92 in 10.0 mi West 15.0 mph 21.9 mph N/A   Scattered Clouds
8:55 AM 52.5 °F - 13.8 °F 22% 29.92 in 10.0 mi West 23.0 mph 29.9 mph N/A   Scattered Clouds
9:15 AM 52.2 °F - 12.4 °F 20% 29.92 in 10.0 mi WSW 31.1 mph 39.1 mph N/A   Scattered Clouds
9:35 AM 52.9 °F - 12.2 °F 20% 29.92 in 10.0 mi WSW 25.3 mph 40.3 mph N/A   Scattered Clouds
9:55 AM 53.6 °F - 10.2 °F 18% 29.92 in 10.0 mi WSW 25.3 mph 42.6 mph N/A   Clear
10:15 AM 55.4 °F - 9.0 °F 16% 29.92 in 10.0 mi WSW 25.3 mph 39.1 mph N/A   Clear
10:35 AM 55.9 °F - 10.8 °F 17% 29.91 in 10.0 mi WSW 26.5 mph 43.7 mph N/A   Clear
10:55 AM 56.7 °F - 10.0 °F 16% 29.91 in 10.0 mi West 20.7 mph 36.8 mph N/A   Clear
11:15 AM 56.7 °F - 11.1 °F 16% 29.92 in 10.0 mi West 26.5 mph 40.3 mph N/A   Clear
11:35 AM 56.8 °F - 10.9 °F 16% 29.91 in 10.0 mi West 23.0 mph 38.0 mph N/A   Clear
11:55 AM 57.9 °F - 9.7 °F 15% 29.92 in 10.0 mi WSW 33.4 mph 41.4 mph N/A   Clear
12:15 PM 57.7 °F - 9.5 °F 15% 29.92 in 10.0 mi West 27.6 mph 40.3 mph N/A   Scattered Clouds
12:35 PM 58.6 °F - 10.0 °F 15% 29.92 in 10.0 mi West 20.7 mph 42.6 mph N/A   Scattered Clouds
12:55 PM 59.9 °F - 9.3 °F 14% 29.92 in 10.0 mi WSW 34.5 mph 46.0 mph N/A   Mostly Cloudy
1:15 PM 59.9 °F - 9.0 °F 13% 29.92 in 10.0 mi WSW 13.8 mph 41.4 mph N/A   Scattered Clouds
1:35 PM 60.6 °F - 9.7 °F 13% 29.92 in 10.0 mi West 15.0 mph 41.4 mph N/A   Mostly Cloudy
1:55 PM 61.2 °F - 9.0 °F 13% 29.92 in 10.0 mi WSW 29.9 mph 40.3 mph N/A   Mostly Cloudy
2:15 PM 62.8 °F - 10.8 °F 13% 29.91 in 10.0 mi WSW 27.6 mph 39.1 mph N/A   Mostly Cloudy
2:35 PM 62.8 °F - 9.9 °F 13% 29.91 in 10.0 mi WSW 31.1 mph 50.6 mph N/A   Overcast
2:55 PM 61.9 °F - 11.8 °F 14% 29.91 in 10.0 mi West 23.0 mph 44.9 mph N/A   Overcast
3:15 PM 61.0 °F - 12.7 °F 15% 29.91 in 10.0 mi WNW 20.7 mph 39.1 mph N/A   Scattered Clouds
3:35 PM 61.7 °F - 15.6 °F 17% 29.91 in 10.0 mi WNW 24.2 mph 33.4 mph N/A   Scattered Clouds
3:55 PM 60.6 °F - 15.8 °F 17% 29.91 in 10.0 mi NW 17.3 mph 33.4 mph N/A   Scattered Clouds
4:15 PM 61.3 °F - 15.1 °F 17% 29.90 in 10.0 mi WNW 16.1 mph 31.1 mph N/A   Scattered Clouds
4:35 PM 62.2 °F - 10.8 °F 13% 29.90 in 10.0 mi WNW 21.9 mph 28.8 mph N/A   Clear
4:55 PM 63.1 °F - 12.4 °F 14% 29.90 in 10.0 mi WNW 17.3 mph 29.9 mph N/A   Clear
5:15 PM 61.9 °F - 8.8 °F 12% 29.90 in 10.0 mi West 19.6 mph 26.5 mph N/A   Scattered Clouds
5:35 PM 60.6 °F - 9.9 °F 14% 29.91 in 10.0 mi West 9.2 mph 25.3 mph N/A   Scattered Clouds
5:55 PM 61.0 °F - 10.6 °F 14% 29.91 in 10.0 mi SW 21.9 mph 28.8 mph N/A   Scattered Clouds
6:15 PM 61.3 °F - 12.4 °F 15% 29.92 in 10.0 mi WSW 11.5 mph 26.5 mph N/A   Scattered Clouds
6:35 PM 57.7 °F - 13.1 °F 17% 29.93 in 10.0 mi WSW 13.8 mph 29.9 mph N/A   Scattered Clouds
6:55 PM 58.1 °F - 11.8 °F 16% 29.93 in 10.0 mi West 9.2 mph 26.5 mph N/A   Mostly Cloudy
7:15 PM 58.3 °F - 9.3 °F 14% 29.94 in 10.0 mi West 17.3 mph 32.2 mph N/A   Scattered Clouds
7:35 PM 57.2 °F - 10.9 °F 16% 29.95 in 10.0 mi West 20.7 mph 29.9 mph N/A   Clear
7:55 PM 55.4 °F - 12.2 °F 18% 29.96 in 10.0 mi West 16.1 mph 29.9 mph N/A   Clear
8:15 PM 54.9 °F - 12.6 °F 19% 29.97 in 10.0 mi West 18.4 mph 34.5 mph N/A   Clear
8:35 PM 54.3 °F - 13.1 °F 20% 29.97 in 10.0 mi West 16.1 mph 29.9 mph N/A   Clear
8:55 PM 51.6 °F - 14.0 °F 22% 29.99 in 10.0 mi West 5.8 mph - N/A   Clear
9:15 PM 52.3 °F - 14.2 °F 22% 29.99 in 10.0 mi West 6.9 mph 18.4 mph N/A   Scattered Clouds
9:35 PM 53.2 °F - 14.2 °F 21% 30.00 in 10.0 mi WSW 10.4 mph 16.1 mph N/A   Mostly Cloudy
9:55 PM 52.9 °F - 14.5 °F 22% 30.00 in 10.0 mi West 11.5 mph 19.6 mph N/A   Overcast
10:15 PM 52.5 °F - 15.6 °F 23% 30.01 in 10.0 mi NW 5.8 mph - N/A   Overcast
10:35 PM 53.2 °F - 16.2 °F 23% 30.02 in 10.0 mi West 10.4 mph - N/A   Overcast
10:55 PM 54.0 °F - 17.6 °F 24% 30.04 in 10.0 mi West 16.1 mph 38.0 mph N/A   Overcast
11:15 PM 53.2 °F - 16.3 °F 23% 30.02 in 10.0 mi SW 4.6 mph - N/A   Mostly Cloudy
11:35 PM 51.3 °F - 18.0 °F 27% 30.03 in 10.0 mi NW 10.4 mph 16.1 mph N/A   Clear
11:55 PM 50.5 °F - 19.9 °F 30% 30.04 in 10.0 mi NW 9.2 mph 16.1 mph N/A   Scattered Clouds